STARLINK-2170, 47753

Orbit data source: Space-Track

STARLINK-2170, 47753 is a payload satellite owned by SpaceX/Seattle (US) in LEO that was launched on Thu, 04 Mar 2021 UTC via an FALCON 9 launch vehicle from the Air Force Eastern Test Range (AFETR). Payload-class satellites include a variety of spacecraft equipped with specific instruments for various scientific and technological missions. These include communications satellites like Starlink; space stations such as the ISS; scientific satellites like the Hubble; Earth observation satellites from companies like Planet Labs, Umbra, and HawkEye 360; GPS; miniature CubeSats for education and research; and military/defense satellites.

Loading next visibility...
Identifier
47753, 2021-017AH
Orbit
LEO
Last TLE update
12 hours ago
Origin
Manufacturer
SpaceX/Seattle
Mission
Operational Commercial Communications
Bus & Motor
STARLINK, Unknown motor
Mass
260 kg wet, ~248 kg dry
Launch date (UTC)
2021-03-04 (4 years ago)
Launch vehicle
FALCON 9
Launch site
Air Force Eastern Test Range (AFETR)
Object type
Payload
Rocket body
Debris
Shape & HBR
Box + 1 Pan, 8.86 m
Radar Cross Section
13.562 m², Large (>1 m²)

Expand to show TLE details & history

TLE from 12 hours ago
0 STARLINK-2170
1 47753U 21017AH  25182.43769865  .00001100  00000-0  92715-4 0  9993
2 47753  53.0547 259.5348 0001390  93.9865 266.1283 15.06409323239905
Epoch: 2025-07-01T10:30Z
TLE epoch observation values (Epoch: 2025-07-01T10:30:17.163Z)
Latitude
-0.00001°
Longitude
-177.76988°
Altitude
548.127 km
Speed
7.589 km/s
True Right ascension
17h 18m 08s
True Declination
0° 00' 00"
Sunlit
Object was in full shadow at epoch
Visualization orbit readout
Latitude
30.8506°
Longitude
-26.507°
Altitude
548.321 km
Speed
7.592 km/s
Apparent Right ascension
00h 59m 04s
Apparent Declination
-3° 44' 08"
Sunlit
Object is in daylight
Visualization observer readout
Local Sidereal Time
09:56:37
Azimuth
299.164° NW
Elevation
-35.254°
Doppler factor
1
Orbital elements
Apogee altitude
548.416 km
Perigee altitude
546.491 km
Semi-major axis
6,925.591 km
Eccentricity
0.00014
Inclination
53.0547°
RAAN
259.5348°
Arg. of periapsis
93.9865°
True anomaly
Unknown
Mean anomaly
266.1283°
Eccentric anomaly
Unknown
Mean motion
3.76581 °/min
Orbital period
95.6 mins
BSTAR
0.000092715
Loading maneuver chart data...
Loading SW <> Apogee altitude chart data...
Loading historical data...
Loading historical data...
Loading historical data...
Loading historical data...
Loading historical data...
Loading historical data...
Loading historical data...

STARLINK-2170 Visibility forecast

Observer location: undefined°, undefined°

Span
Click to sort rows by Start time (UTC) header in descending order
Start Az.
Max El. time (UTC)
Max El. Az.
Max El.
End time (UTC)
End Az.
6 mins2025-07-02 07:22:14.100Z205.039° SW2025-07-02 07:25:14.100Z136.308° SSE36.851°2025-07-02 07:28:14.100Z64.648° ENE
5 mins2025-07-02 09:03:14.100Z291.721° WNW2025-07-02 09:05:14.100Z340.988° N25.823°2025-07-02 09:08:14.100Z31.894° NE
6 mins2025-07-02 14:04:14.100Z326.196° NNW2025-07-02 14:06:14.100Z8.929° NNE36.366°2025-07-02 14:10:14.100Z109.74° ESE
4 mins2025-07-02 15:44:14.100Z266.181° W2025-07-02 15:46:14.100Z225.445° WSW21.047°2025-07-02 15:48:14.100Z189.038° SSW
|